�������l�o���
Date,Time,MP-1(��Sv/h),MP-2(��Sv/h),MP-3(��Sv/h),MP-4(��Sv/h),MP-5(��Sv/h),MP-6(��Sv/h),MP-7(��Sv/h),MP-8(��Sv/h),����,����(m/s),���J
2022/07/14,00:00,0.576,0.810,0.518,0.978,0.689,0.334,0.580,0.546,���k��,6.4,��
2022/07/14,00:10,0.578,0.810,0.519,0.981,0.690,0.334,0.580,0.547,���k��,5.7,��
2022/07/14,00:20,0.578,0.809,0.518,0.981,0.690,0.334,0.579,0.546,���k��,5.7,��
2022/07/14,00:30,0.578,0.811,0.520,0.982,0.691,0.334,0.581,0.545,���k��,5.7,��
2022/07/14,00:40,0.576,0.812,0.518,0.982,0.689,0.333,0.581,0.546,���k��,6.1,�L
2022/07/14,00:50,0.576,0.810,0.521,0.983,0.690,0.334,0.580,0.546,���k��,4.4,�L
2022/07/14,01:00,0.578,0.810,0.518,0.979,0.691,0.334,0.580,0.545,���k��,4.7,�L
2022/07/14,01:10,0.575,0.806,0.517,0.979,0.690,0.333,0.579,0.545,���k��,5.0,�L
2022/07/14,01:20,0.575,0.804,0.514,0.978,0.686,0.334,0.578,0.544,���k��,4.5,�L
2022/07/14,01:30,0.573,0.798,0.514,0.975,0.686,0.332,0.578,0.546,���k��,3.8,�L
2022/07/14,01:40,0.573,0.797,0.512,0.972,0.684,0.333,0.580,0.546,���k��,3.7,�L
2022/07/14,01:50,0.574,0.798,0.513,0.974,0.686,0.333,0.578,0.545,�k��,3.8,�L
2022/07/14,02:00,0.575,0.797,0.512,0.972,0.682,0.333,0.581,0.546,�k��,3.1,��
2022/07/14,02:10,0.573,0.799,0.513,0.973,0.683,0.332,0.579,0.546,�k��,3.7,��
2022/07/14,02:20,0.573,0.800,0.513,0.973,0.684,0.333,0.580,0.545,�k��,3.6,��
2022/07/14,02:30,0.574,0.801,0.515,0.974,0.684,0.334,0.580,0.546,�k��,2.6,��
2022/07/14,02:40,0.575,0.800,0.515,0.975,0.684,0.333,0.580,0.547,�k�k��,2.5,�L
2022/07/14,02:50,0.574,0.801,0.515,0.975,0.684,0.335,0.579,0.547,�k�k��,1.9,�L
2022/07/14,03:00,0.575,0.799,0.515,0.976,0.685,0.333,0.580,0.547,�k�k��,1.5,�L
2022/07/14,03:10,0.575,0.801,0.514,0.975,0.685,0.333,0.580,0.546,�k�k��,2.0,�L
2022/07/14,03:20,0.573,0.799,0.516,0.975,0.686,0.334,0.579,0.547,�k�k��,2.0,�L
2022/07/14,03:30,0.572,0.799,0.516,0.973,0.687,0.334,0.578,0.546,�k�k��,2.2,��
2022/07/14,03:40,0.573,0.800,0.516,0.975,0.686,0.334,0.578,0.547,�k�k��,2.9,��
2022/07/14,03:50,0.573,0.800,0.515,0.975,0.686,0.334,0.580,0.546,�k�k��,3.9,��
2022/07/14,04:00,0.575,0.799,0.518,0.976,0.687,0.336,0.578,0.546,�k�k��,4.4,�L
2022/07/14,04:10,0.575,0.800,0.517,0.976,0.687,0.335,0.579,0.547,�k�k��,5.1,�L
2022/07/14,04:20,0.572,0.802,0.517,0.976,0.686,0.333,0.579,0.546,�k�k��,5.2,�L
2022/07/14,04:30,0.571,0.799,0.516,0.975,0.686,0.333,0.579,0.546,�k,5.4,�L
2022/07/14,04:40,0.571,0.796,0.515,0.975,0.686,0.335,0.579,0.545,�k,5.1,�L
2022/07/14,04:50,0.570,0.796,0.514,0.972,0.686,0.333,0.578,0.543,�k,4.2,�L
2022/07/14,05:00,0.571,0.793,0.514,0.972,0.682,0.333,0.574,0.544,�k,3.6,�L
2022/07/14,05:10,0.568,0.795,0.513,0.969,0.680,0.331,0.573,0.541,�k,5.2,�L
2022/07/14,05:20,0.571,0.795,0.515,0.967,0.679,0.330,0.574,0.542,�k,4.9,�L
2022/07/14,05:30,0.571,0.798,0.513,0.967,0.679,0.331,0.575,0.542,�k,5.8,�L
2022/07/14,05:40,0.570,0.797,0.514,0.969,0.682,0.332,0.574,0.541,�k,5.4,�L
2022/07/14,05:50,0.572,0.797,0.514,0.969,0.683,0.331,0.575,0.543,�k,4.9,�L
2022/07/14,06:00,0.570,0.798,0.514,0.970,0.681,0.330,0.574,0.544,�k,5.4,�L
2022/07/14,06:10,0.571,0.801,0.515,0.970,0.683,0.332,0.574,0.544,�k,5.7,�L
2022/07/14,06:20,0.570,0.798,0.515,0.970,0.683,0.332,0.575,0.544,�k,4.5,�L
2022/07/14,06:30,0.572,0.800,0.516,0.970,0.684,0.332,0.575,0.544,�k,5.0,�L
2022/07/14,06:40,0.574,0.801,0.517,0.972,0.685,0.332,0.573,0.544,�k�k��,5.2,�L
2022/07/14,06:50,0.573,0.800,0.517,0.973,0.686,0.333,0.575,0.544,�k�k��,4.2,�L
2022/07/14,07:00,0.573,0.800,0.516,0.969,0.685,0.333,0.575,0.543,�k�k��,3.4,�L
2022/07/14,07:10,0.574,0.800,0.516,0.972,0.687,0.333,0.573,0.544,�k,3.7,�L
2022/07/14,07:20,0.574,0.801,0.515,0.973,0.685,0.333,0.576,0.545,�k�k��,3.6,�L
2022/07/14,07:30,0.574,0.802,0.516,0.972,0.687,0.334,0.574,0.545,�k,3.3,�L
2022/07/14,07:40,0.575,0.801,0.519,0.973,0.686,0.334,0.575,0.545,�k,3.0,�L
2022/07/14,07:50,0.574,0.802,0.517,0.974,0.686,0.334,0.572,0.545,�k,3.5,��
2022/07/14,08:00,0.576,0.805,0.518,0.975,0.686,0.334,0.575,0.545,�k,2.8,�L
2022/07/14,08:10,0.575,0.803,0.517,0.975,0.687,0.333,0.574,0.544,�k,2.6,��
2022/07/14,08:20,0.574,0.801,0.518,0.972,0.688,0.334,0.574,0.545,�k�k��,2.5,��
2022/07/14,08:30,0.575,0.802,0.517,0.972,0.689,0.334,0.575,0.545,�k�k��,3.7,��
2022/07/14,08:40,0.574,0.800,0.518,0.974,0.688,0.335,0.574,0.545,�k,3.4,��
2022/07/14,08:50,0.573,0.801,0.517,0.973,0.687,0.334,0.575,0.545,�k,3.4,�L
2022/07/14,09:00,0.575,0.801,0.517,0.976,0.687,0.332,0.575,0.545,�k,3.1,�L
2022/07/14,09:10,0.573,0.798,0.517,0.974,0.688,0.333,0.574,0.545,�k�k��,3.3,�L
2022/07/14,09:20,0.575,0.799,0.515,0.974,0.686,0.332,0.575,0.542,�k�k��,3.5,�L
2022/07/14,09:30,0.573,0.799,0.517,0.973,0.688,0.333,0.576,0.543,�k�k��,3.6,�L
2022/07/14,09:40,0.575,0.799,0.515,0.975,0.687,0.333,0.574,0.544,�k�k��,3.3,�L
2022/07/14,09:50,0.574,0.800,0.516,0.975,0.683,0.333,0.574,0.544,�k�k��,3.1,�L
2022/07/14,10:00,0.572,0.800,0.515,0.973,0.684,0.332,0.575,0.544,�k,2.9,�L
2022/07/14,10:10,0.574,0.797,0.516,0.975,0.683,0.333,0.576,0.545,�k�k��,2.8,�L
2022/07/14,10:20,0.574,0.802,0.517,0.975,0.683,0.333,0.575,0.546,�k�k��,2.9,�L
2022/07/14,10:30,0.574,0.803,0.518,0.975,0.684,0.333,0.575,0.546,�k�k��,3.1,��
2022/07/14,10:40,0.573,0.803,0.515,0.976,0.685,0.334,0.576,0.545,�k�k��,3.0,��
2022/07/14,10:50,0.573,0.799,0.517,0.976,0.685,0.334,0.579,0.547,�k,3.0,��
2022/07/14,11:00,0.574,0.803,0.518,0.975,0.685,0.334,0.576,0.545,�k�k��,2.6,��
2022/07/14,11:10,0.575,0.799,0.518,0.975,0.684,0.334,0.578,0.545,�k�k��,2.5,��
2022/07/14,11:20,0.575,0.803,0.517,0.976,0.686,0.333,0.578,0.546,�k�k��,2.6,��
2022/07/14,11:30,0.575,0.801,0.516,0.976,0.685,0.334,0.579,0.545,�k�k��,3.2,��
2022/07/14,11:40,0.577,0.805,0.517,0.975,0.685,0.333,0.578,0.546,�k�k��,3.6,��
2022/07/14,11:50,0.577,0.805,0.518,0.976,0.686,0.333,0.579,0.545,�k�k��,3.7,��
2022/07/14,12:00,0.578,0.806,0.518,0.976,0.685,0.334,0.578,0.548,�k�k��,3.5,��
2022/07/14,12:10,0.577,0.806,0.518,0.976,0.687,0.334,0.579,0.547,�k,4.3,��
2022/07/14,12:20,0.579,0.805,0.519,0.976,0.684,0.334,0.578,0.548,�k�k��,3.6,��
2022/07/14,12:30,0.579,0.807,0.518,0.976,0.691,0.334,0.579,0.547,�k,4.1,��
2022/07/14,12:40,0.577,0.808,0.520,0.976,0.690,0.335,0.578,0.547,�k�k��,4.1,��
2022/07/14,12:50,0.578,0.807,0.518,0.976,0.690,0.335,0.578,0.546,�k�k��,4.1,��
2022/07/14,13:00,0.579,0.808,0.517,0.976,0.688,0.335,0.580,0.547,�k�k��,3.9,��
2022/07/14,13:10,0.579,0.806,0.519,0.975,0.690,0.335,0.580,0.548,�k�k��,3.9,��
2022/07/14,13:20,0.579,0.805,0.520,0.975,0.691,0.336,0.580,0.549,�k�k��,3.8,��
2022/07/14,13:30,0.579,0.805,0.519,0.977,0.692,0.335,0.580,0.548,�k�k��,3.7,�L
2022/07/14,13:40,0.580,0.808,0.520,0.978,0.692,0.334,0.580,0.549,�k�k��,3.5,�L
2022/07/14,13:50,0.578,0.806,0.520,0.976,0.691,0.335,0.579,0.549,�k,3.4,�L
2022/07/14,14:00,0.578,0.809,0.520,0.977,0.692,0.335,0.579,0.547,�k,3.6,�L
2022/07/14,14:10,0.581,0.808,0.520,0.977,0.691,0.335,0.581,0.548,�k,3.6,�L
2022/07/14,14:20,0.579,0.808,0.521,0.977,0.690,0.335,0.579,0.548,�k,3.7,�L
2022/07/14,14:30,0.577,0.808,0.519,0.977,0.692,0.335,0.579,0.548,�k,3.5,�L
2022/07/14,14:40,0.576,0.806,0.518,0.977,0.691,0.334,0.577,0.546,�k,2.9,�L
2022/07/14,14:50,0.575,0.804,0.518,0.980,0.688,0.334,0.579,0.547,�k�k��,3.4,�L
2022/07/14,15:00,0.575,0.803,0.516,0.976,0.687,0.335,0.579,0.546,�k,3.3,�L
2022/07/14,15:10,0.573,0.798,0.515,0.973,0.688,0.333,0.576,0.545,�k,3.3,�L
2022/07/14,15:20,0.573,0.797,0.515,0.972,0.687,0.334,0.578,0.544,�k�k��,3.5,�L
2022/07/14,15:30,0.575,0.798,0.514,0.973,0.687,0.332,0.577,0.546,�k,3.3,�L
2022/07/14,15:40,0.574,0.798,0.514,0.974,0.687,0.333,0.577,0.545,�k,3.2,�L
2022/07/14,15:50,0.572,0.799,0.515,0.974,0.687,0.334,0.576,0.545,�k,3.2,�L
2022/07/14,16:00,0.569,0.797,0.514,0.975,0.688,0.333,0.579,0.546,�k�k��,3.3,�L
2022/07/14,16:10,0.569,0.796,0.513,0.975,0.685,0.334,0.575,0.545,�k�k��,3.6,�L
2022/07/14,16:20,0.568,0.792,0.512,0.966,0.685,0.332,0.575,0.546,�k�k��,2.5,�L
2022/07/14,16:30,0.568,0.790,0.512,0.963,0.681,0.331,0.574,0.544,�k�k��,4.0,�L
2022/07/14,16:40,0.565,0.786,0.511,0.960,0.677,0.331,0.574,0.543,�k�k��,3.5,�L
2022/07/14,16:50,0.565,0.788,0.510,0.961,0.676,0.331,0.572,0.543,�k�k��,2.8,�L
2022/07/14,17:00,0.563,0.788,0.509,0.960,0.677,0.332,0.572,0.543,�k,3.0,�L
2022/07/14,17:10,0.563,0.789,0.510,0.959,0.678,0.331,0.572,0.542,�k,2.3,�L
2022/07/14,17:20,0.564,0.790,0.510,0.960,0.678,0.330,0.573,0.544,�k�k��,1.5,�L
2022/07/14,17:30,0.565,0.791,0.512,0.960,0.677,0.332,0.574,0.545,�k�k��,1.7,�L
2022/07/14,17:40,0.566,0.790,0.511,0.960,0.678,0.332,0.573,0.543,�k�k��,1.7,�L
2022/07/14,17:50,0.566,0.790,0.512,0.962,0.678,0.332,0.574,0.544,�k�k��,1.4,�L
2022/07/14,18:00,0.566,0.792,0.511,0.963,0.679,0.332,0.574,0.544,��,1.1,��
2022/07/14,18:10,0.565,0.794,0.512,0.961,0.682,0.334,0.572,0.545,���쓌,1.4,��
2022/07/14,18:20,0.567,0.792,0.513,0.967,0.679,0.333,0.572,0.545,�쓌,0.6,�L
2022/07/14,18:30,0.567,0.795,0.514,0.965,0.682,0.333,0.572,0.544,-,CALM,�L
2022/07/14,18:40,0.566,0.795,0.514,0.965,0.682,0.333,0.573,0.544,��,0.6,�L
2022/07/14,18:50,0.568,0.793,0.516,0.966,0.681,0.334,0.573,0.544,��,0.6,�L
2022/07/14,19:00,0.568,0.793,0.514,0.965,0.682,0.332,0.573,0.544,���쓌,1.2,�L
2022/07/14,19:10,0.568,0.795,0.513,0.965,0.681,0.333,0.573,0.545,-,CALM,�L
2022/07/14,19:20,0.568,0.793,0.515,0.964,0.684,0.333,0.573,0.541,�쓌,0.6,�L
2022/07/14,19:30,0.566,0.794,0.515,0.968,0.683,0.332,0.573,0.544,�쓌,0.9,�L
2022/07/14,19:40,0.566,0.791,0.514,0.965,0.681,0.333,0.574,0.544,�쓌,1.2,�L
2022/07/14,19:50,0.565,0.791,0.512,0.964,0.682,0.335,0.572,0.544,���쓌,1.4,�L
2022/07/14,20:00,0.565,0.792,0.513,0.962,0.680,0.332,0.572,0.543,-,CALM,�L
2022/07/14,20:10,0.564,0.791,0.514,0.960,0.678,0.333,0.571,0.543,��쓌,0.9,�L
2022/07/14,20:20,0.564,0.790,0.513,0.960,0.675,0.331,0.571,0.542,�쓌,0.8,�L
2022/07/14,20:30,0.566,0.789,0.513,0.956,0.676,0.332,0.570,0.543,�쓌,0.9,�L
2022/07/14,20:40,0.566,0.790,0.512,0.959,0.676,0.331,0.572,0.543,�쓌,0.9,�L
2022/07/14,20:50,0.566,0.790,0.513,0.959,0.677,0.332,0.571,0.543,��쓌,1.4,�L
2022/07/14,21:00,0.566,0.792,0.515,0.963,0.676,0.331,0.573,0.544,�쓌,2.9,�L
2022/07/14,21:10,0.566,0.791,0.511,0.963,0.677,0.333,0.571,0.542,�쓌,2.0,��
2022/07/14,21:20,0.567,0.792,0.515,0.963,0.678,0.332,0.572,0.543,��쓌,3.2,��
2022/07/14,21:30,0.567,0.792,0.513,0.964,0.677,0.331,0.572,0.542,��쓌,3.5,��
2022/07/14,21:40,0.567,0.794,0.516,0.962,0.679,0.332,0.572,0.542,��쓌,1.7,�L
2022/07/14,21:50,0.566,0.793,0.515,0.965,0.679,0.333,0.573,0.544,��쓌,3.5,�L
2022/07/14,22:00,0.567,0.794,0.513,0.964,0.678,0.333,0.572,0.542,��쓌,3.1,�L
2022/07/14,22:10,0.568,0.796,0.515,0.966,0.681,0.331,0.573,0.543,��쓌,3.2,�L
2022/07/14,22:20,0.568,0.795,0.514,0.964,0.681,0.334,0.575,0.543,��쓌,3.0,�L
2022/07/14,22:30,0.568,0.795,0.514,0.965,0.682,0.332,0.571,0.542,��,3.2,�L
2022/07/14,22:40,0.568,0.795,0.515,0.964,0.680,0.333,0.573,0.542,��쓌,2.9,�L
2022/07/14,22:50,0.568,0.795,0.514,0.963,0.681,0.333,0.571,0.543,��쓌,2.3,�L
2022/07/14,23:00,0.568,0.794,0.515,0.965,0.683,0.333,0.573,0.542,��쓌,2.6,�L
2022/07/14,23:10,0.569,0.797,0.515,0.964,0.681,0.333,0.572,0.544,��쓌,2.5,�L
2022/07/14,23:20,0.568,0.797,0.515,0.965,0.681,0.333,0.573,0.543,��쓌,3.1,�L
2022/07/14,23:30,0.567,0.799,0.516,0.965,0.682,0.331,0.573,0.544,��쓌,2.5,�L
2022/07/14,23:40,0.568,0.798,0.515,0.965,0.681,0.333,0.572,0.544,��쓌,2.6,��
2022/07/14,23:50,0.570,0.798,0.515,0.969,0.683,0.334,0.573,0.545,��쓌,2.5,��
